FLOCK 3R-9 (43723 NORAD) Tracking and Keplerian Element Data

This shows tracking and keplerian element data for the satellite.

Feedback or suggestion? Click here.




ElementValue
Catalog43723
NameFLOCK 3R-9
Epoch Orbit456
Epoch Day363.13963182
Epoch Year2018
RAAN68.1552
Inclination97.4813
Eccentricity0.0017517
Argument of Perigee213.888
Mean Anonmoly201.6767
Mean Motion15.25978842
Decay Rate7.22E-06
L11 43723U 18096E 18363.13963182 .00000722 00000-0 30926-4 0 9992
L22 43723 97.4813 68.1552 0017517 213.8880 201.6767 15.25978842 4566

Live tracking and technical data element details for FLOCK 3R-9 (NORAD 43723). FLOCK 3R-9 can be tracked NOW for your location showing map with azimuth and elevation plus other details from your city location.

Track the satellite on the map from your city or location and see movement details for azimuth, elevation, latitude, longitude, range, height, and movement on the map or in text.







IsCatalogInMostPopularTable: catalog: 43723, numindb: 122
Update: records affected: 1



GetName: 43723 FLOCK 3R-9

Hit Count: updated at: Tue, 20 Aug 2019 18:14:35 GMT